AFR374F LFPG-CYVR

Flight info

Callsign AFR374F
Flight time N/A
Altitude 30000
Route OPALE T421 KUNAV/N0466F260 T421 BIG/N0480F280 T420 TNT/N0451F240 L28 AGLIL/N0479F280 M146 LUSOD/N0451F240 M146 ROBOP M147 MAGEE/N0481F280 DCT GOMUP/M082F280 DCT 6220N DCT 6530N DCT 6740N/M084F300 DCT 68N050W DCT CANEL/N0488F300 DCT 6780N DCT 64N00/N0488F320 DCT 60N09 DCT PIBLI DCT NADPI DCT MERYT DCT BOOTH LIONN4
Aircraft B77L/H-SDE1E2E3FGHIJ2J3J4J5M1RWXY/LB1D1

Departure

Time N/A
Airport Charles de Gaulle International Airport (LFPG)

Arrival

Time 2026-05-03 23:58
Airport Vancouver International Airport (CYVR)
Time Latitude Longitude Altitude Speed Heading
2026-05-03 23:39 50.05690 -120.74073 33960 ft 508 kts 235°
2026-05-03 23:39 50.03462 -120.78359 33958 ft 510 kts 235°
2026-05-03 23:40 49.98994 -120.86937 33903 ft 507 kts 235°
2026-05-03 23:40 49.96994 -120.91360 33579 ft 494 kts 244°
2026-05-03 23:40 49.95448 -120.96075 32948 ft 487 kts 251°
2026-05-03 23:41 49.94178 -121.00949 32102 ft 488 kts 253°
2026-05-03 23:41 49.93019 -121.05912 31132 ft 491 kts 254°
2026-05-03 23:41 49.91914 -121.10950 30255 ft 493 kts 255°
2026-05-03 23:41 49.90854 -121.15992 29500 ft 489 kts 255°
2026-05-03 23:42 49.89822 -121.20995 28945 ft 482 kts 255°
2026-05-03 23:42 49.88812 -121.25916 28440 ft 476 kts 255°
2026-05-03 23:42 49.87817 -121.30709 27870 ft 471 kts 253°
2026-05-03 23:42 49.86548 -121.35380 27147 ft 468 kts 245°
2026-05-03 23:43 49.84917 -121.39751 26440 ft 469 kts 239°
2026-05-03 23:43 49.83058 -121.43887 25874 ft 466 kts 236°
2026-05-03 23:43 49.81766 -121.46524 25462 ft 465 kts 234°
2026-05-03 23:43 49.79756 -121.50453 24728 ft 465 kts 233°
2026-05-03 23:44 49.77734 -121.54341 24089 ft 463 kts 233°
2026-05-03 23:44 49.75732 -121.58211 23573 ft 459 kts 234°
2026-05-03 23:44 49.73761 -121.62058 22996 ft 454 kts 234°
2026-05-03 23:44 49.71826 -121.65867 22449 ft 449 kts 234°
2026-05-03 23:45 49.69907 -121.69661 21869 ft 445 kts 234°
2026-05-03 23:45 49.68009 -121.73420 21288 ft 442 kts 234°
2026-05-03 23:45 49.66126 -121.77155 20668 ft 440 kts 234°
2026-05-03 23:45 49.64246 -121.80873 20021 ft 437 kts 234°
2026-05-03 23:46 49.62379 -121.84562 19443 ft 435 kts 233°
2026-05-03 23:46 49.60524 -121.88227 18941 ft 430 kts 233°
2026-05-03 23:46 49.58686 -121.91843 18418 ft 427 kts 233°
2026-05-03 23:46 49.56863 -121.95431 17884 ft 424 kts 233°
2026-05-03 23:47 49.55051 -121.98994 17351 ft 420 kts 233°
2026-05-03 23:47 49.53254 -122.02520 16792 ft 417 kts 233°
2026-05-03 23:47 49.51502 -122.06050 16239 ft 413 kts 237°
2026-05-03 23:47 49.49983 -122.09774 15687 ft 410 kts 241°
2026-05-03 23:48 49.48549 -122.13550 15127 ft 409 kts 240°
2026-05-03 23:48 49.47095 -122.17286 14688 ft 405 kts 240°
2026-05-03 23:48 49.45639 -122.20982 14201 ft 402 kts 239°
2026-05-03 23:48 49.44190 -122.24636 13655 ft 401 kts 239°
2026-05-03 23:49 49.42767 -122.28224 13155 ft 391 kts 239°
2026-05-03 23:49 49.41379 -122.31711 12162 ft 376 kts 239°
2026-05-03 23:49 49.39995 -122.35146 11126 ft 382 kts 237°
2026-05-03 23:49 49.38335 -122.38360 10461 ft 386 kts 228°
2026-05-03 23:50 49.36514 -122.41353 10073 ft 381 kts 227°
2026-05-03 23:50 49.34701 -122.44317 9518 ft 381 kts 227°
2026-05-03 23:50 49.32915 -122.47289 9239 ft 374 kts 228°
2026-05-03 23:50 49.31182 -122.50226 9062 ft 371 kts 228°
2026-05-03 23:51 49.29448 -122.53174 8984 ft 368 kts 229°
2026-05-03 23:51 49.27786 -122.56004 8749 ft 352 kts 229°
2026-05-03 23:51 49.26167 -122.58769 8497 ft 345 kts 228°
2026-05-03 23:51 49.24580 -122.61483 8241 ft 339 kts 229°
2026-05-03 23:52 49.23021 -122.64141 7985 ft 333 kts 228°
2026-05-03 23:52 49.21510 -122.66711 7769 ft 319 kts 228°
2026-05-03 23:52 49.20146 -122.69234 7501 ft 297 kts 237°
2026-05-03 23:52 49.19091 -122.71854 7229 ft 285 kts 240°
2026-05-03 23:53 49.18094 -122.74461 7048 ft 282 kts 239°
2026-05-03 23:53 49.17098 -122.76998 6843 ft 271 kts 239°
2026-05-03 23:53 49.16183 -122.79459 6386 ft 264 kts 250°
2026-05-03 23:53 49.16039 -122.82117 6132 ft 254 kts 283°
2026-05-03 23:54 49.16413 -122.84740 6003 ft 252 kts 282°
2026-05-03 23:54 49.16726 -122.87340 5747 ft 244 kts 281°
2026-05-03 23:54 49.17018 -122.89842 5403 ft 236 kts 281°
2026-05-03 23:54 49.17309 -122.92322 4797 ft 238 kts 280°
2026-05-03 23:55 49.17618 -122.94790 4278 ft 232 kts 281°
2026-05-03 23:55 49.17901 -122.97158 3899 ft 222 kts 280°
2026-05-03 23:55 49.18163 -122.99441 3352 ft 213 kts 280°
2026-05-03 23:55 49.18421 -123.01739 2330 ft 224 kts 279°
2026-05-03 23:56 49.18684 -123.04021 1743 ft 212 kts 279°
2026-05-03 23:56 49.18915 -123.06200 1332 ft 201 kts 279°
2026-05-03 23:56 49.19177 -123.08180 1043 ft 182 kts 280°
2026-05-03 23:56 49.19374 -123.10004 677 ft 166 kts 278°
2026-05-03 23:57 49.19543 -123.11627 512 ft 146 kts 282°
2026-05-03 23:57 49.19724 -123.13146 435 ft 146 kts 280°
2026-05-03 23:57 49.19897 -123.14669 256 ft 149 kts 281°
2026-05-03 23:57 49.20076 -123.16221 48 ft 144 kts 281°
2026-05-03 23:58 49.20235 -123.17608 30 ft 113 kts 279°
2026-05-03 23:58 49.20339 -123.18510 29 ft 62 kts 280°
2026-05-03 23:58 49.20394 -123.18991 29 ft 41 kts 277°
2026-05-03 23:58 49.20350 -123.19374 30 ft 27 kts 250°
2026-05-03 23:59 49.20300 -123.19579 30 ft 12 kts 248°
2026-05-03 23:59 49.20257 -123.19603 30 ft 6 kts 147°
2026-05-03 23:59 49.20242 -123.19543 30 ft 7 kts 102°
2026-05-03 23:59 49.20234 -123.19474 30 ft 7 kts 99°
2026-05-04 00:00 49.20226 -123.19405 30 ft 7 kts 100°
2026-05-04 00:00 49.20218 -123.19335 30 ft 7 kts 100°
2026-05-04 00:00 49.20209 -123.19263 29 ft 7 kts 100°
2026-05-04 00:00 49.20201 -123.19189 29 ft 10 kts 99°
2026-05-04 00:01 49.20174 -123.18952 29 ft 28 kts 99°
2026-05-04 00:01 49.20143 -123.18676 29 ft 21 kts 99°
2026-05-04 00:01 49.20111 -123.18521 29 ft 13 kts 144°
2026-05-04 00:01 49.20044 -123.18444 29 ft 13 kts 100°
2026-05-04 00:02 49.20027 -123.18306 29 ft 13 kts 100°
2026-05-04 00:02 49.20010 -123.18167 29 ft 13 kts 100°
2026-05-04 00:02 49.19995 -123.18037 29 ft 7 kts 101°
2026-05-04 00:02 49.19960 -123.18015 29 ft 6 kts 194°
2026-05-04 00:03 49.19931 -123.18024 29 ft 4 kts 190°
2026-05-04 00:03 49.19920 -123.18027 30 ft 0 kts 190°